487  
ASUS44 KOHX 100610  
RWROHX  
MIDDLE TENNESSEE HOURLY WEATHER ROUNDUP  
NATIONAL WEATHER SERVICE NASHVILLE TN  
100 AM CDT WED AUG 10 2022  
 
NOTE: "FAIR" INDICATES FEW OR NO CLOUDS BELOW 12,000 FEET WITH  
NO SIGNIFICANT WEATHER AND/OR S TO VISIBILITY
.  
 
* THESE REPORTS ARE NOT UNDER NWS QUALITY CONTROL AND MAY NOT  
REPORT WEATHER SUCH AS PRECIPITATION AND FOG.
 
 
 
TNZ005>011-023>034-057-059-062>066-078-080-100700   
..NORTHERN MIDDLE TENNESSEE
 
 
 
CITY SKY/WX TMP DP RH WIND PRES REMARKS
 
CLARKSVILLE MOCLDY 74 71 91 CALM 30.11S  
CROSSVILLE PTCLDY 69 68 96 CALM 30.19F  
DICKSON CLOUDY 72 70 94 CALM 30.12F  
LEBANON PTCLDY 73 72 94 CALM 30.10S  
LIVINGSTON CLEAR 72 70 94 SW5 30.14F  
NASHVILLE MOCLDY 74 69 85 VRB3 30.12S  
ROCKWOOD FOG 68 68 100 CALM 30.18F VSB 0  
SMYRNA MOCLDY 74 72 93 S5 30.12F  
SPRINGFIELD PTCLDY 72 72 100 CALM 30.11S  
WEST NASHVILLE PTCLDY 72 70 94 CALM 30.10S  

 
TNZ056-058-060-061-075>077-079-093>097-100700   
..SOUTHERN MIDDLE TENNESSEE
 
 
 
CITY SKY/WX TMP DP RH WIND PRES REMARKS
 
FAYETTEVILLE CLEAR 72 72 100 SE6 30.16S  
LEWISBURG CLEAR 72 72 100 CALM 30.12F  
MCMINNVILLE PTCLDY 72 70 94 CALM 30.15S  
MURFREESBORO MOCLDY 75 72 88 S5 30.11F  
SHELBYVILLE PTCLDY 72 72 100 CALM 30.13F  
TULLAHOMA CLEAR 72 70 94 SE5 30.15S  
WINCHESTER PTCLDY 73 70 88 CALM 30.14F  

 
 
   
..KEY TO REMARKS
 
 
VSB - VISIBILITY IN MILES  
WCI - WIND CHILL INDEX  
HX - HEAT INDEX  
 
 
 
CLICK HERE TO GO TO PREVIOUS BULLETINS.

The Nexlab TN Page Main Text Page